Weather History for Colby, KS

Change the Weather History Date:

Monday, November 12, 2012

  Actual Average (KGLD) Record (KGLD)
Temperature  
Mean Temperature 32 °F 41 °F  
Max Temperature 50 °F 54 °F 78 °F (1989)
Min Temperature 14 °F 27 °F -2 °F (1911)
Degree Days  
Heating Degree Days 33 24  
Month to date heating degree days 260  
Since 1 July heating degree days 800  
Cooling Degree Days 0 0  
Month to date cooling degree days 0  
Year to date cooling degree days 941  
Moisture  
Dew Point 14 °F    
Average Humidity 56    
Maximum Humidity 100    
Minimum Humidity 24    
Precipitation  
Precipitation 0.00 in 0.02 in 0.45 in (1912)
Month to date precipitation 0.34  
Year to date precipitation 18.83  
Snow  
Snow - 0.10 in - ()
Month to date snowfall 1.5  
Since 1 July snowfall 4.1  
Since 1 September snowfall 4.1  
Snow Depth -    
Sea Level Pressure  
Sea Level Pressure 30.31 in    
Wind  
Wind Speed 9 mph ()    
Max Wind Speed 18 mph    
Max Gust Speed 28 mph    
Visibility 10.0 miles    
Events      
T = Trace of Precipitation, MM = Missing Value Source: Averaged Metar Reports

Daily Weather History Graph

Daily Weather History Graph

Search for Another Location

Airport:

Trip Planner

Search our weather history database for the weather conditions in past years. The results will help you decide how hot, cold, wet, or windy it might be!

Date:

Astronomy

Nov. 12, 2012 Rise Set
Actual Time 7:25 AM CST 5:31 PM CST
Civil Twilight 6:56 AM CST 5:59 PM CST
Nautical Twilight 6:24 AM CST 6:32 PM CST
Astronomical Twilight 5:52 AM CST 7:03 PM CST
Moon 5:53 AM CST (11/12) 4:37 PM CST (11/12)
Length of Visible Light 11h 03m
Length of Day
10h 05m
Waning Crescent, 2% of the Moon is Illuminated
Nov 12
Waning Crescent
Nov 13
New
Nov 20
First Quarter
Nov 28
Full
Dec 6
Last Quarter

Hourly Weather History & Observations

Time (CST) Temp. Windchill Dew Point Humidity Pressure Visibility Wind Dir Wind Speed Gust Speed Precip Events Conditions
12:15 AM 15.8 °F 5.1 °F 12.2 °F 86% 30.24 in 10.0 mi West 8.1 mph - N/A   Clear
12:35 AM 14.0 °F 2.9 °F 12.2 °F 93% 30.24 in 10.0 mi WSW 8.1 mph - N/A   Clear
12:55 AM 14.0 °F 5.1 °F 12.2 °F 93% 30.24 in 10.0 mi WSW 5.8 mph - N/A   Clear
1:35 AM 14.0 °F 2.9 °F 12.2 °F 93% 30.24 in 10.0 mi WSW 8.1 mph - N/A   Clear
1:55 AM 14.0 °F 3.9 °F 12.2 °F 93% 30.24 in 10.0 mi WSW 6.9 mph - N/A   Clear
2:15 AM 17.6 °F 7.3 °F 17.6 °F 100% 30.24 in 10.0 mi WSW 8.1 mph - N/A   Clear
2:35 AM 21.2 °F 9.5 °F 19.4 °F 93% 30.25 in 10.0 mi West 11.5 mph - N/A   Clear
2:55 AM 21.2 °F 8.9 °F 19.4 °F 93% 30.25 in 10.0 mi West 12.7 mph - N/A   Clear
3:15 AM 21.2 °F 9.5 °F 17.6 °F 86% 30.26 in 10.0 mi West 11.5 mph - N/A   Clear
3:55 AM 21.2 °F 9.5 °F 17.6 °F 86% 30.26 in 10.0 mi West 11.5 mph - N/A   Clear
4:15 AM 21.2 °F 9.5 °F 17.6 °F 86% 30.26 in 10.0 mi West 11.5 mph - N/A   Clear
4:35 AM 19.4 °F 6.6 °F 15.8 °F 86% 30.27 in 10.0 mi West 12.7 mph - N/A   Clear
4:55 AM 19.4 °F 6.6 °F 15.8 °F 86% 30.27 in 10.0 mi West 12.7 mph - N/A   Clear
5:15 AM 19.4 °F 7.2 °F 14.0 °F 80% 30.28 in 10.0 mi West 11.5 mph - N/A   Clear
5:35 AM 19.4 °F 7.2 °F 14.0 °F 80% 30.29 in 10.0 mi West 11.5 mph - N/A   Clear
5:55 AM 19.4 °F 7.2 °F 14.0 °F 80% 30.29 in 10.0 mi West 11.5 mph - N/A   Clear
6:15 AM 19.4 °F 7.9 °F 14.0 °F 80% 30.30 in 10.0 mi West 10.4 mph - N/A   Clear
6:35 AM 19.4 °F 7.9 °F 14.0 °F 80% 30.31 in 10.0 mi West 10.4 mph - N/A   Clear
6:55 AM 17.6 °F 5.7 °F 14.0 °F 86% 30.31 in 10.0 mi West 10.4 mph - N/A   Clear
7:15 AM 19.4 °F 7.9 °F 14.0 °F 80% 30.31 in 10.0 mi West 10.4 mph - N/A   Clear
7:35 AM 19.4 °F 9.5 °F 14.0 °F 80% 30.32 in 10.0 mi West 8.1 mph - N/A   Clear
7:55 AM 19.4 °F 9.5 °F 14.0 °F 80% 30.34 in 10.0 mi West 8.1 mph - N/A   Clear
8:15 AM 21.2 °F 14.9 °F 15.8 °F 80% 30.34 in 10.0 mi West 4.6 mph - N/A   Clear
8:35 AM 23.0 °F 17.0 °F 17.6 °F 80% 30.35 in 10.0 mi West 4.6 mph - N/A   Clear
8:55 AM 26.6 °F 20.0 °F 19.4 °F 74% 30.35 in 10.0 mi West 5.8 mph - N/A   Clear
9:15 AM 30.2 °F 22.6 °F 19.4 °F 64% 30.36 in 10.0 mi West 8.1 mph - N/A   Clear
9:35 AM 32.0 °F 24.2 °F 21.2 °F 64% 30.36 in 10.0 mi West 9.2 mph - N/A   Clear
9:55 AM 33.8 °F 23.5 °F 19.4 °F 56% 30.36 in 10.0 mi West 16.1 mph - N/A   Clear
10:15 AM 35.6 °F 26.6 °F 17.6 °F 48% 30.36 in 10.0 mi West 13.8 mph 18.4 mph N/A   Clear
10:35 AM 37.4 °F 29.8 °F 17.6 °F 45% 30.36 in 10.0 mi West 11.5 mph - N/A   Clear
10:55 AM 39.2 °F 31.2 °F 17.6 °F 42% 30.36 in 10.0 mi West 13.8 mph - N/A   Clear
11:15 AM 41.0 °F 33.1 °F 17.6 °F 39% 30.36 in 10.0 mi West 15.0 mph - N/A   Clear
11:35 AM 42.8 °F 35.1 °F 19.4 °F 39% 30.36 in 10.0 mi West 16.1 mph - N/A   Clear
11:55 AM 42.8 °F 34.5 °F 17.6 °F 36% 30.35 in 10.0 mi WSW 18.4 mph 24.2 mph N/A   Clear
12:15 PM 44.6 °F 37.4 °F 17.6 °F 34% 30.34 in 10.0 mi West 16.1 mph 27.6 mph N/A   Clear
12:35 PM 46.4 °F 39.5 °F 17.6 °F 32% 30.34 in 10.0 mi West 17.3 mph 24.2 mph N/A   Clear
12:55 PM 46.4 °F 39.8 °F 15.8 °F 29% 30.32 in 10.0 mi WNW 16.1 mph 21.9 mph N/A   Clear
1:15 PM 46.4 °F 41.1 °F 14.0 °F 27% 30.32 in 10.0 mi WNW 11.5 mph 19.6 mph N/A   Clear
1:35 PM 46.4 °F 39.8 °F 15.8 °F 29% 30.31 in 10.0 mi West 16.1 mph 20.7 mph N/A   Clear
1:55 PM 48.2 °F - 14.0 °F 25% 30.31 in 10.0 mi WNW 13.8 mph 23.0 mph N/A   Clear
2:15 PM 48.2 °F - 14.0 °F 25% 30.31 in 10.0 mi West 11.5 mph 20.7 mph N/A   Clear
2:35 PM 48.2 °F - 14.0 °F 25% 30.30 in 10.0 mi West 13.8 mph - N/A   Clear
2:55 PM 50.0 °F - 15.8 °F 26% 30.30 in 10.0 mi WNW 15.0 mph 18.4 mph N/A   Clear
3:35 PM 50.0 °F - 14.0 °F 24% 30.30 in 10.0 mi NW 12.7 mph 19.6 mph N/A   Clear
3:55 PM 48.2 °F - 14.0 °F 25% 30.30 in 10.0 mi NW 12.7 mph - N/A   Clear
4:15 PM 48.2 °F - 14.0 °F 25% 30.30 in 10.0 mi NW 8.1 mph - N/A   Clear
4:35 PM 48.2 °F - 14.0 °F 25% 30.31 in 10.0 mi NW 6.9 mph - N/A   Clear
4:55 PM 46.4 °F 42.9 °F 14.0 °F 27% 30.31 in 10.0 mi NW 6.9 mph - N/A   Clear
5:15 PM 42.8 °F 40.1 °F 14.0 °F 31% 30.31 in 10.0 mi NW 4.6 mph - N/A   Clear
5:35 PM 42.8 °F 38.6 °F 14.0 °F 31% 30.30 in 10.0 mi NNW 6.9 mph - N/A   Clear
5:55 PM 42.8 °F 41.1 °F 14.0 °F 31% 30.30 in 10.0 mi North 3.5 mph - N/A   Clear
6:15 PM 42.8 °F - 12.2 °F 29% 30.31 in 10.0 mi Calm Calm - N/A   Clear
6:35 PM 35.6 °F 30.7 °F 12.2 °F 38% 30.31 in 10.0 mi SSE 5.8 mph - N/A   Clear
6:55 PM 33.8 °F - 12.2 °F 41% 30.32 in 10.0 mi Calm Calm - N/A   Clear
7:15 PM 35.6 °F 30.7 °F 12.2 °F 38% 30.32 in 10.0 mi SSE 5.8 mph - N/A   Clear
7:35 PM 28.4 °F 23.3 °F 10.4 °F 47% 30.32 in 10.0 mi South 4.6 mph - N/A   Clear
7:55 PM 30.2 °F 25.4 °F 12.2 °F 47% 30.32 in 10.0 mi South 4.6 mph - N/A   Clear
8:15 PM 32.0 °F 27.5 °F 12.2 °F 44% 30.32 in 10.0 mi South 4.6 mph - N/A   Clear
8:35 PM 32.0 °F 26.4 °F 10.4 °F 41% 30.32 in 10.0 mi South 5.8 mph - N/A   Clear
8:55 PM 28.4 °F 23.3 °F 10.4 °F 47% 30.32 in 10.0 mi South 4.6 mph - N/A   Clear
9:15 PM 32.0 °F 27.5 °F 10.4 °F 41% 30.32 in 10.0 mi South 4.6 mph - N/A   Clear
9:35 PM 32.0 °F 27.5 °F 10.4 °F 41% 30.32 in 10.0 mi SSW 4.6 mph - N/A   Clear
9:55 PM 28.4 °F 22.2 °F 8.6 °F 43% 30.32 in 10.0 mi SW 5.8 mph - N/A   Clear
10:15 PM 28.4 °F 21.2 °F 8.6 °F 43% 30.32 in 10.0 mi SW 6.9 mph - N/A   Clear
10:35 PM 24.8 °F 16.9 °F 10.4 °F 54% 30.32 in 10.0 mi SW 6.9 mph - N/A   Clear
10:55 PM 24.8 °F 16.9 °F 10.4 °F 54% 30.32 in 10.0 mi SW 6.9 mph - N/A   Clear
11:15 PM 24.8 °F 16.9 °F 10.4 °F 54% 30.31 in 10.0 mi WSW 6.9 mph - N/A   Clear
11:35 PM 24.8 °F 16.9 °F 12.2 °F 59% 30.31 in 10.0 mi WSW 6.9 mph - N/A   Clear
11:55 PM 23.0 °F 14.7 °F 12.2 °F 63% 30.31 in 10.0 mi WSW 6.9 mph - N/A   Clear